Volver al catálogo

JACKAL-02

ActivoMilitarSSO
NORAD 59134·PAYLOAD·🇺🇸 United States

Lanzado Mar 4, 2024 desde Vandenberg Space Force Base

Loading…

Próximos Pases (próximas 24 horas)

TLE

ActualizadoSource: Space-Track

Época: Sep 13, 2026, 22:22 UTC

1 59134U 24043AN  26256.93234865  .00015400  00000-0  28591-3 0  9994
2 59134  97.5697  46.8996 0005773 244.1518 115.9137 15.49016623141343

Sigue JACKAL-02 en tiempo real con AllMySat

Download on the App Store